Hourly Data Report for October 08, 2014

All times are specified in Local Standard Time (LST). Add 1 hour to adjust for Daylight Saving Time where and when it is observed.

KUGAARUK CLIMATE
NUNAVUT

68°32'15.060" N
89°47'47.020" W
15.80 m
2303094
71407
NBB

Download Data

Hourly Data (October 2014)
Hourly Data Report for October 8, 2014
Temp Definition
°C
Dew Point Temp Definition
°C
Rel Hum Definition
%
Wind Dir Definition
10's deg

Wind Spd Definition
km/h
Visibility Definition
km
Stn Press Definition
kPa
Hmdx Definition


Wind Chill Definition


Weather Definition


TIME
00:00 -8.1 -9.2 91 8 13   102.50   -14 LegendNANA
01:00 -8.0 -9.1 92 10 17   102.49   -15 LegendNANA
02:00 -7.8 -8.9 92 8 25   102.47   -16 LegendNANA
03:00 -9.8 -11.0 91 6 12   102.51   -16 LegendNANA
04:00 -10.0 -11.0 92 8 11   102.57   -16 LegendNANA
05:00 -9.5 -10.6 92 5 4   102.59   -12 LegendNANA
06:00 -8.7 -9.7 92 11 5   102.61   -11 LegendNANA
07:00 -8.0 -9.0 93 10 6   102.60   -11 LegendNANA
08:00 -7.5 -8.4 94 9 8   102.60   -12 LegendNANA
09:00 -7.3 -8.1 94 8 9   102.61   -12 LegendNANA
10:00 -7.0 -7.8 94 9 7   102.60   -11 LegendNANA
11:00 -7.2 -8.0 94 7 6   102.63   -10 LegendNANA
12:00 -7.6 -8.5 93 7 6   102.64   -11 LegendNANA
13:00 -7.6 -8.5 93 6 6   102.64   -11 LegendNANA
14:00 -7.7 -8.6 93 6 7   102.63   -11 LegendNANA
15:00 -8.3 -9.3 93 9 5   102.61   -11 LegendNANA
16:00 -8.1 -9.1 93 10 8   102.63   -12 LegendNANA
17:00 -9.2 -10.3 92 6 7   102.62   -13 LegendNANA
18:00 -8.7 -9.8 92 0 1   102.61   -9 LegendNANA
19:00 -8.1 -9.1 93 18 3   102.59   -10 LegendNANA
20:00 -7.6 -8.5 93 20 1   102.58   -8 LegendNANA
21:00 -7.1 -7.9 94 20 4   102.57   -9 LegendNANA
22:00 -6.7 -7.6 94 32 7   102.56   -10 LegendNANA
23:00 -6.7 -7.5 94 0 1   102.55   -7 LegendNANA

Notes on Data Quality.

Legend

  • E = Estimated
  • M = Missing
  • NA = Not Available
  • ‡ = Partner data that is not subject to review by the National Climate Archives
Date modified: